| time (UTC) | temp F | wind direction | speed knots | gust knots | rain 1hr in | rain 24hr in | rain mn in | humidity % | barometer mb |
| 20260508141600 | 52 | 186 | 2.6 | 4.3 | 0.00 | 1.17 | 0.00 | 89 | 1001.8 |
| 20260508140113 | 51 | 196 | 2.6 | 4.3 | 0.00 | 1.17 | 0.00 | 89 | 1001.9 |
| 20260508134558 | 50 | 197 | 3.5 | 4.3 | 0.00 | 1.18 | 0.00 | 90 | 1002.0 |
| 20260508133055 | 50 | 0 | 0.0 | 0.0 | 0.00 | 1.18 | 0.00 | 91 | 1002.1 |
| 20260508131603 | 51 | 114 | 0.9 | 2.6 | 0.00 | 1.18 | 0.00 | 92 | 1002.0 |
| 20260508130056 | 51 | 0 | 0.0 | 2.6 | 0.00 | 1.18 | 0.00 | 93 | 1001.8 |
| 20260508124605 | 51 | 335 | 0.0 | 4.3 | 0.00 | 1.18 | 0.00 | 93 | 1001.8 |
| 20260508123055 | 50 | 4 | 1.7 | 6.1 | 0.00 | 1.18 | 0.00 | 94 | 1001.9 |
| 20260508121604 | 49 | 316 | 2.6 | 8.7 | 0.00 | 1.18 | 0.00 | 95 | 1002.2 |
| 20260508120059 | 48 | 0 | 2.6 | 7.0 | 0.00 | 1.18 | 0.00 | 95 | 1002.2 |
| 20260508114553 | 48 | 27 | 0.0 | 5.2 | 0.00 | 1.18 | 0.00 | 95 | 1002.0 |
| 20260508113057 | 47 | 0 | 0.0 | 3.5 | 0.00 | 1.18 | 0.00 | 95 | 1002.4 |
| 20260508111600 | 47 | 62 | 0.0 | 2.6 | 0.00 | 1.18 | 0.00 | 95 | 1002.5 |
| 20260508110100 | 47 | 342 | 0.0 | 1.7 | 0.00 | 1.18 | 0.00 | 95 | 1002.2 |
| 20260508104555 | 46 | 0 | 0.0 | 0.0 | 0.00 | 1.22 | 0.00 | 95 | 1001.9 |
| 20260508103121 | 44 | 0 | 0.0 | 0.0 | 0.00 | 1.22 | 0.00 | 95 | 1001.9 |
| 20260508101614 | 43 | 0 | 0.0 | 0.0 | 0.00 | 1.22 | 0.00 | 95 | 1001.8 |
| 20260508100054 | 42 | 0 | 0.0 | 0.0 | 0.00 | 1.22 | 0.00 | 95 | 1001.8 |
| 20260508094607 | 40 | 0 | 0.0 | 0.0 | 0.00 | 1.22 | 0.00 | 95 | 1001.9 |
| 20260508093053 | 40 | 0 | 0.0 | 0.0 | 0.00 | 1.22 | 0.00 | 94 | 1002.0 |
| 20260508091556 | 40 | 0 | 0.0 | 0.0 | 0.00 | 1.22 | 0.00 | 94 | 1001.7 |
| 20260508090107 | 41 | 0 | 0.0 | 0.0 | 0.00 | 1.22 | 0.00 | 95 | 1001.5 |
| 20260508084552 | 41 | 0 | 0.0 | 0.0 | 0.00 | 1.22 | 0.00 | 94 | 1001.7 |
| 20260508083112 | 41 | 0 | 0.0 | 0.0 | 0.00 | 1.22 | 0.00 | 94 | 1001.9 |
| 20260508081555 | 43 | 0 | 0.0 | 0.0 | 0.00 | 1.22 | 0.00 | 95 | 1001.7 |
| 20260508080054 | 43 | 287 | 0.9 | 2.6 | 0.00 | 1.22 | 0.00 | 95 | 1001.8 |
| 20260508074555 | 43 | 0 | 0.0 | 0.0 | 0.00 | 1.22 | 0.00 | 95 | 1001.8 |
| 20260508073052 | 44 | 310 | 0.0 | 1.7 | 0.00 | 1.22 | 0.00 | 95 | 1001.6 |
| 20260508071554 | 44 | 309 | 0.0 | 2.6 | 0.00 | 1.22 | 0.00 | 95 | 1001.2 |
| 20260508070055 | 44 | 325 | 0.0 | 2.6 | 0.00 | 1.22 | 0.00 | 95 | 1001.4 |
| 20260508064557 | 44 | 0 | 0.0 | 1.7 | 0.00 | 1.22 | 0.00 | 95 | 1001.5 |
| 20260508063056 | 44 | 0 | 0.0 | 2.6 | 0.00 | 1.22 | 0.00 | 95 | 1001.4 |
| 20260508061559 | 45 | 0 | 0.0 | 2.6 | 0.00 | 1.22 | 0.00 | 95 | 1001.4 |
| 20260508060057 | 45 | 0 | 0.0 | 3.5 | 0.00 | 1.22 | 0.00 | 95 | 1001.5 |
| 20260508054601 | 45 | 321 | 0.9 | 3.5 | 0.00 | 1.22 | 0.00 | 95 | 1001.6 |
| 20260508053055 | 45 | 310 | 1.7 | 3.5 | 0.00 | 1.22 | 0.00 | 95 | 1001.8 |
| 20260508051555 | 45 | 0 | 0.0 | 1.7 | 0.00 | 1.22 | 0.00 | 95 | 1001.6 |
| 20260508050057 | 45 | 318 | 0.9 | 4.3 | 0.00 | 1.22 | 0.00 | 95 | 1001.7 |
| 20260508044552 | 44 | 0 | 0.0 | 2.6 | 0.00 | 1.22 | 0.00 | 95 | 1002.0 |
| 20260508043101 | 44 | 0 | 0.0 | 0.0 | 0.00 | 1.22 | 0.00 | 95 | 1001.8 |
| 20260508041558 | 44 | 0 | 0.0 | 0.0 | 0.00 | 1.22 | 0.00 | 95 | 1001.6 |
| 20260508040052 | 44 | 0 | 0.0 | 0.0 | 0.00 | 1.22 | 0.00 | 95 | 1001.6 |
| 20260508034558 | 44 | 0 | 0.0 | 0.0 | 0.00 | 1.22 | 0.00 | 95 | 1001.9 |
| 20260508033055 | 44 | 0 | 0.0 | 0.0 | 0.00 | 1.22 | 0.00 | 95 | 1002.1 |
| 20260508031557 | 44 | 0 | 0.0 | 0.0 | 0.00 | 1.22 | 0.00 | 95 | 1002.2 |
| 20260508030058 | 44 | 0 | 0.0 | 0.0 | 0.00 | 1.22 | 0.00 | 95 | 1002.2 |
| 20260508024555 | 45 | 0 | 0.0 | 0.0 | 0.00 | 1.22 | 1.22 | 95 | 1001.9 |
| 20260508023053 | 45 | 0 | 0.0 | 0.0 | 0.00 | 1.22 | 1.22 | 95 | 1002.1 |
| 20260508021556 | 44 | 0 | 0.0 | 1.7 | 0.00 | 1.22 | 1.22 | 95 | 1002.2 |
| 20260508020057 | 45 | 170 | 1.7 | 2.6 | 0.00 | 1.22 | 1.22 | 95 | 1002.4 |
| 20260508014558 | 44 | 0 | 0.0 | 3.5 | 0.00 | 1.22 | 1.22 | 95 | 1002.3 |
| 20260508013055 | 44 | 0 | 0.0 | 0.0 | 0.00 | 1.22 | 1.22 | 95 | 1002.5 |
| 20260508011555 | 44 | 0 | 0.0 | 2.6 | 0.00 | 1.22 | 1.22 | 95 | 1002.4 |
| 20260508010056 | 44 | 226 | 0.0 | 1.7 | 0.00 | 1.22 | 1.22 | 95 | 1002.3 |
| 20260508004601 | 44 | 208 | 2.6 | 4.3 | 0.00 | 1.22 | 1.22 | 94 | 1002.3 |
| 20260508003107 | 44 | 190 | 1.7 | 3.5 | 0.00 | 1.22 | 1.22 | 95 | 1002.3 |
| 20260508001558 | 45 | 220 | 0.9 | 5.2 | 0.00 | 1.22 | 1.22 | 95 | 1002.0 |
| 20260508000100 | 46 | 198 | 2.6 | 3.5 | 0.00 | 1.22 | 1.22 | 95 | 1002.3 |
| 20260507234558 | 46 | 0 | 0.0 | 0.0 | 0.00 | 1.22 | 1.22 | 95 | 1001.7 |
| 20260507233052 | 46 | 0 | 0.0 | 0.0 | 0.00 | 1.22 | 1.22 | 95 | 1001.6 |
| 20260507231552 | 46 | 0 | 0.0 | 0.9 | 0.00 | 1.22 | 1.22 | 95 | 1001.7 |
| 20260507230055 | 46 | 0 | 0.0 | 3.5 | 0.00 | 1.22 | 1.22 | 95 | 1002.0 |
| 20260507224611 | 46 | 232 | 1.7 | 6.1 | 0.00 | 1.22 | 1.22 | 95 | 1002.1 |
| 20260507223059 | 46 | 225 | 1.7 | 7.0 | 0.00 | 1.22 | 1.22 | 95 | 1002.2 |
| 20260507221553 | 46 | 231 | 3.5 | 7.0 | 0.00 | 1.22 | 1.22 | 95 | 1002.4 |
| 20260507220054 | 46 | 227 | 2.6 | 10.4 | 0.00 | 1.22 | 1.22 | 95 | 1002.3 |
| 20260507214603 | 46 | 215 | 3.5 | 13.9 | 0.00 | 1.22 | 1.22 | 95 | 1002.6 |
| 20260507213054 | 46 | 223 | 8.7 | 12.2 | 0.00 | 1.22 | 1.22 | 95 | 1002.6 |
| 20260507211620 | 46 | 227 | 7.8 | 13.9 | 0.00 | 1.22 | 1.22 | 95 | 1002.5 |
| 20260507210056 | 47 | 229 | 9.6 | 13.9 | 0.00 | 1.22 | 1.22 | 95 | 1002.6 |
| 20260507204601 | 47 | 238 | 12.2 | 20.9 | 0.00 | 1.22 | 1.22 | 95 | 1002.7 |
| 20260507203054 | 48 | 228 | 10.4 | 16.5 | 0.01 | 1.22 | 1.22 | 95 | 1002.9 |
| 20260507201610 | 47 | 194 | 7.0 | 11.3 | 0.02 | 1.22 | 1.22 | 95 | 1002.9 |
| 20260507194558 | 47 | 116 | 1.7 | 6.1 | 0.08 | 1.22 | 1.22 | 94 | 1001.8 |
| 20260507193107 | 48 | 138 | 2.6 | 11.3 | 0.11 | 1.20 | 1.20 | 94 | 1001.9 |
| 20260507191558 | 48 | 208 | 6.1 | 10.4 | 0.20 | 1.19 | 1.19 | 95 | 1003.2 |
| 20260507190057 | 48 | 141 | 3.5 | 9.6 | 0.24 | 1.17 | 1.17 | 94 | 1003.0 |
| 20260507184555 | 48 | 170 | 3.5 | 7.8 | 0.31 | 1.13 | 1.13 | 94 | 1003.7 |
| 20260507183100 | 49 | 208 | 3.5 | 7.0 | 0.37 | 1.08 | 1.08 | 95 | 1004.3 |
| 20260507181556 | 48 | 233 | 5.2 | 10.4 | 0.42 | 0.99 | 0.99 | 95 | 1004.6 |
| 20260507180058 | 48 | 227 | 5.2 | 10.4 | 0.71 | 0.92 | 0.92 | 94 | 1004.5 |
| 20260507174556 | 48 | 245 | 4.3 | 7.8 | 0.74 | 0.81 | 0.81 | 95 | 1004.8 |
| 20260507173103 | 48 | 239 | 5.2 | 10.4 | 0.63 | 0.70 | 0.70 | 94 | 1005.1 |
| 20260507171557 | 47 | 213 | 7.0 | 14.8 | 0.49 | 0.55 | 0.55 | 95 | 1005.6 |
| 20260507170056 | 46 | 213 | 11.3 | 18.2 | 0.14 | 0.21 | 0.21 | 95 | 1005.3 |
| 20260507164556 | 46 | 175 | 13.9 | 20.0 | 0.01 | 0.07 | 0.07 | 95 | 1004.4 |
| 20260507163053 | 47 | 152 | 13.9 | 23.5 | 0.00 | 0.07 | 0.07 | 95 | 1004.4 |
| 20260507161601 | 46 | 175 | 13.0 | 20.9 | 0.00 | 0.06 | 0.06 | 95 | 1005.0 |
| 20260507160053 | 47 | 183 | 12.2 | 21.7 | 0.00 | 0.06 | 0.06 | 95 | 1005.3 |
| 20260507154555 | 47 | 170 | 13.0 | 20.0 | 0.00 | 0.06 | 0.06 | 95 | 1005.8 |
| 20260507153100 | 47 | 179 | 13.9 | 21.7 | 0.00 | 0.06 | 0.06 | 95 | 1006.1 |
| 20260507151552 | 47 | 175 | 12.2 | 20.0 | 0.00 | 0.05 | 0.05 | 95 | 1006.8 |
| 20260507150056 | 47 | 175 | 12.2 | 15.6 | 0.00 | 0.05 | 0.05 | 95 | 1007.2 |
| 20260507144555 | 46 | 170 | 10.4 | 17.4 | 0.00 | 0.05 | 0.05 | 95 | 1007.6 |
| 20260507143055 | 46 | 175 | 10.4 | 15.6 | 0.00 | 0.05 | 0.05 | 95 | 1008.0 |